Time,TemperatureF,DewpointF,PressureIn,WindDirection,WindDirectionDegrees,WindSpeedMPH,WindSpeedGustMPH,Humidity,HourlyPrecipIn,Conditions,Clouds,dailyrainin,SoftwareType,DateUTC
2013-01-22 00:04:00,27.0,13.0,30.10,SSW,194,0.0,0.0,54,0.00,,,0.00,,2013-01-22 05:04:00,
2013-01-22 00:12:00,27.0,13.0,30.10,SSW,194,0.0,0.0,54,0.00,,,0.00,,2013-01-22 05:12:00,
2013-01-22 00:23:00,27.0,12.0,30.10,SSW,194,0.0,0.0,52,0.00,,,0.00,,2013-01-22 05:23:00,
2013-01-22 00:33:00,27.0,12.0,30.10,SSW,194,0.0,0.0,52,0.00,,,0.00,,2013-01-22 05:33:00,
2013-01-22 00:43:00,27.0,12.0,30.09,SSW,194,0.0,0.0,53,0.00,,,0.00,,2013-01-22 05:43:00,
2013-01-22 00:52:00,27.0,12.0,30.09,SSW,194,0.0,0.0,53,0.00,,,0.00,,2013-01-22 05:52:00,
2013-01-22 01:02:00,26.0,13.0,30.09,SSW,194,0.0,0.0,57,0.00,,,0.00,,2013-01-22 06:02:00,
2013-01-22 01:12:00,26.0,13.0,30.09,SSW,194,0.0,0.0,57,0.00,,,0.00,,2013-01-22 06:12:00,
2013-01-22 01:22:00,26.0,12.0,30.09,SSW,194,0.0,0.0,55,0.00,,,0.00,,2013-01-22 06:22:00,
2013-01-22 01:33:00,26.0,13.0,30.09,SSW,194,0.0,0.0,57,0.00,,,0.00,,2013-01-22 06:33:00,
2013-01-22 01:43:00,26.0,13.0,30.09,SSW,194,0.0,0.0,57,0.00,,,0.00,,2013-01-22 06:43:00,
2013-01-22 01:52:00,26.0,13.0,30.08,SSW,194,0.0,0.0,57,0.00,,,0.00,,2013-01-22 06:52:00,
2013-01-22 02:02:00,25.0,11.0,30.09,SSW,194,0.0,0.0,55,0.00,,,0.00,,2013-01-22 07:02:00,
2013-01-22 02:12:00,25.0,11.0,30.09,SSW,194,0.0,0.0,55,0.00,,,0.00,,2013-01-22 07:12:00,
2013-01-22 02:22:00,25.0,13.0,30.10,SSW,194,0.0,0.0,59,0.00,,,0.00,,2013-01-22 07:22:00,
2013-01-22 02:33:00,25.0,12.0,30.09,SSW,194,0.0,0.0,57,0.00,,,0.00,,2013-01-22 07:33:00,
2013-01-22 02:42:00,25.0,12.0,30.09,SSW,194,0.0,0.0,57,0.00,,,0.00,,2013-01-22 07:42:00,
2013-01-22 02:52:00,24.0,11.0,30.10,SSW,194,0.0,0.0,58,0.00,,,0.00,,2013-01-22 07:52:00,
2013-01-22 03:02:00,24.0,11.0,30.10,SSW,194,0.0,0.0,58,0.00,,,0.00,,2013-01-22 08:02:00,
2013-01-22 03:12:00,24.0,11.0,30.10,SSW,194,0.0,0.0,58,0.00,,,0.00,,2013-01-22 08:12:00,
2013-01-22 03:22:00,24.0,11.0,30.10,SSW,194,0.0,0.0,57,0.00,,,0.00,,2013-01-22 08:22:00,
2013-01-22 03:32:00,24.0,9.0,30.10,SSW,194,0.0,0.0,53,0.00,,,0.00,,2013-01-22 08:32:00,
2013-01-22 03:42:00,24.0,9.0,30.10,SSW,194,0.0,0.0,53,0.00,,,0.00,,2013-01-22 08:42:00,
2013-01-22 03:52:00,24.0,10.0,30.10,SSW,194,0.0,0.0,55,0.00,,,0.00,,2013-01-22 08:52:00,
2013-01-22 04:02:00,23.0,10.0,30.10,SSW,194,0.0,0.0,56,0.00,,,0.00,,2013-01-22 09:02:00,
2013-01-22 04:12:00,23.0,10.0,30.10,SSW,194,0.0,0.0,56,0.00,,,0.00,,2013-01-22 09:12:00,
2013-01-22 04:22:00,23.0,9.0,30.10,SSW,194,0.0,0.0,55,0.00,,,0.00,,2013-01-22 09:22:00,
2013-01-22 04:33:00,22.0,8.0,30.10,SSW,194,0.0,0.0,53,0.00,,,0.00,,2013-01-22 09:33:00,
2013-01-22 04:43:00,22.0,8.0,30.10,SSW,194,0.0,0.0,53,0.00,,,0.00,,2013-01-22 09:43:00,
2013-01-22 04:52:00,22.0,6.0,30.10,SSW,194,0.0,0.0,50,0.00,,,0.00,,2013-01-22 09:52:00,
2013-01-22 05:03:00,22.0,5.0,30.10,SSW,194,0.0,0.0,48,0.00,,,0.00,,2013-01-22 10:03:00,
2013-01-22 05:12:00,22.0,5.0,30.10,SSW,194,0.0,0.0,48,0.00,,,0.00,,2013-01-22 10:12:00,
2013-01-22 05:22:00,22.0,8.0,30.11,SSW,194,0.0,0.0,54,0.00,,,0.00,,2013-01-22 10:22:00,
2013-01-22 05:33:00,21.0,7.0,30.12,SSW,194,0.0,0.0,53,0.00,,,0.00,,2013-01-22 10:33:00,
2013-01-22 05:42:00,21.0,7.0,30.12,SSW,194,0.0,0.0,53,0.00,,,0.00,,2013-01-22 10:42:00,
2013-01-22 05:52:00,21.0,6.0,30.12,SSW,194,0.0,0.0,51,0.00,,,0.00,,2013-01-22 10:52:00,
2013-01-22 06:02:00,21.0,6.0,30.14,SSW,194,0.0,0.0,52,0.00,,,0.00,,2013-01-22 11:02:00,
2013-01-22 06:12:00,21.0,6.0,30.14,SSW,194,0.0,0.0,52,0.00,,,0.00,,2013-01-22 11:12:00,
2013-01-22 06:23:00,21.0,6.0,30.13,SSW,194,0.0,0.0,52,0.00,,,0.00,,2013-01-22 11:23:00,
2013-01-22 06:33:00,21.0,7.0,30.14,SSW,194,0.0,0.0,53,0.00,,,0.00,,2013-01-22 11:33:00,
2013-01-22 06:43:00,21.0,7.0,30.14,SSW,194,0.0,0.0,53,0.00,,,0.00,,2013-01-22 11:43:00,
2013-01-22 06:53:00,21.0,7.0,30.14,SSW,194,0.0,0.0,54,0.00,,,0.00,,2013-01-22 11:53:00,
2013-01-22 07:04:00,20.0,6.0,30.15,SSW,194,0.0,0.0,54,0.00,,,0.00,,2013-01-22 12:04:00,
2013-01-22 07:13:00,20.0,6.0,30.15,SSW,194,0.0,0.0,54,0.00,,,0.00,,2013-01-22 12:13:00,
2013-01-22 07:23:00,20.0,8.0,30.16,SSW,194,0.0,0.0,58,0.00,,,0.00,,2013-01-22 12:23:00,
2013-01-22 07:33:00,20.0,8.0,30.16,SSW,194,0.0,0.0,58,0.00,,,0.00,,2013-01-22 12:33:00,
2013-01-22 07:43:00,20.0,6.0,30.16,SSW,194,0.0,0.0,55,0.00,,,0.00,,2013-01-22 12:43:00,
2013-01-22 07:52:00,20.0,7.0,30.17,SSW,194,0.0,0.0,57,0.00,,,0.00,,2013-01-22 12:52:00,
2013-01-22 08:04:00,20.0,6.0,30.17,SSW,194,0.0,0.0,55,0.00,,,0.00,,2013-01-22 13:04:00,
2013-01-22 08:14:00,20.0,6.0,30.17,SSW,194,0.0,0.0,55,0.00,,,0.00,,2013-01-22 13:14:00,
2013-01-22 08:23:00,19.0,7.0,30.18,SSW,194,0.0,0.0,58,0.00,,,0.00,,2013-01-22 13:23:00,
2013-01-22 08:33:00,20.0,6.0,30.18,SE,136,0.0,2.0,55,0.00,,,0.00,,2013-01-22 13:33:00,
2013-01-22 08:43:00,20.0,6.0,30.18,SE,136,0.0,2.0,55,0.00,,,0.00,,2013-01-22 13:43:00,
2013-01-22 08:53:00,21.0,7.0,30.19,SSE,161,0.0,3.0,53,0.00,,,0.00,,2013-01-22 13:53:00,
2013-01-22 09:03:00,21.0,7.0,30.19,SE,130,0.0,5.0,53,0.00,,,0.00,,2013-01-22 14:03:00,
2013-01-22 09:13:00,21.0,7.0,30.19,SE,130,0.0,5.0,53,0.00,,,0.00,,2013-01-22 14:13:00,
2013-01-22 09:23:00,22.0,7.0,30.19,SE,134,0.0,4.0,52,0.00,,,0.00,,2013-01-22 14:23:00,
2013-01-22 09:34:00,23.0,8.0,30.20,SE,142,4.0,4.0,51,0.00,,,0.00,,2013-01-22 14:34:00,
2013-01-22 09:44:00,23.0,8.0,30.20,SE,142,4.0,4.0,51,0.00,,,0.00,,2013-01-22 14:44:00,
2013-01-22 09:53:00,24.0,9.0,30.20,SE,136,0.0,9.0,53,0.00,,,0.00,,2013-01-22 14:53:00,
2013-01-22 10:04:00,24.0,9.0,30.21,South,174,0.0,3.0,51,0.00,,,0.00,,2013-01-22 15:04:00,
2013-01-22 10:13:00,24.0,9.0,30.21,South,174,0.0,3.0,51,0.00,,,0.00,,2013-01-22 15:13:00,
2013-01-22 10:24:00,26.0,9.0,30.22,WNW,290,0.0,8.0,48,0.00,,,0.00,,2013-01-22 15:24:00,
2013-01-22 10:34:00,26.0,8.0,30.22,SW,232,5.0,8.0,45,0.00,,,0.00,,2013-01-22 15:34:00,
2013-01-22 10:43:00,26.0,8.0,30.22,SW,232,5.0,8.0,45,0.00,,,0.00,,2013-01-22 15:43:00,
2013-01-22 10:53:00,26.0,8.0,30.22,West,270,3.0,4.0,46,0.00,,,0.00,,2013-01-22 15:53:00,
2013-01-22 11:04:00,27.0,9.0,30.24,SSW,205,4.0,8.0,45,0.00,,,0.00,,2013-01-22 16:04:00,
2013-01-22 11:13:00,27.0,9.0,30.24,SSW,205,4.0,8.0,45,0.00,,,0.00,,2013-01-22 16:13:00,
2013-01-22 11:23:00,28.0,7.0,30.24,SW,234,0.0,9.0,41,0.00,,,0.00,,2013-01-22 16:23:00,
2013-01-22 11:33:00,28.0,8.0,30.26,WSW,240,1.0,8.0,42,0.00,,,0.00,,2013-01-22 16:33:00,
2013-01-22 11:43:00,28.0,8.0,30.26,WSW,240,1.0,8.0,42,0.00,,,0.00,,2013-01-22 16:43:00,
2013-01-22 11:53:00,28.0,6.0,30.26,SSW,209,3.0,10.0,39,0.00,,,0.00,,2013-01-22 16:53:00,
2013-01-22 12:04:00,29.0,5.0,30.25,WNW,298,2.0,5.0,36,0.00,,,0.00,,2013-01-22 17:04:00,
2013-01-22 12:13:00,29.0,5.0,30.25,WNW,298,2.0,5.0,36,0.00,,,0.00,,2013-01-22 17:13:00,
2013-01-22 12:23:00,30.0,5.0,30.25,WNW,300,3.0,8.0,34,0.00,,,0.00,,2013-01-22 17:23:00,
2013-01-22 12:34:00,30.0,4.0,30.25,WNW,282,7.0,9.0,33,0.00,,,0.00,,2013-01-22 17:34:00,
2013-01-22 12:44:00,30.0,4.0,30.25,WNW,282,7.0,9.0,33,0.00,,,0.00,,2013-01-22 17:44:00,
2013-01-22 12:53:00,30.0,2.0,30.24,West,261,3.0,7.0,30,0.00,,,0.00,,2013-01-22 17:53:00,
2013-01-22 13:04:00,32.0,6.0,30.24,SW,225,0.0,8.0,33,0.00,,,0.00,,2013-01-22 18:04:00,
2013-01-22 13:13:00,32.0,6.0,30.24,SW,225,0.0,8.0,33,0.00,,,0.00,,2013-01-22 18:13:00,
2013-01-22 13:24:00,32.0,6.0,30.24,WSW,240,0.0,3.0,33,0.00,,,0.00,,2013-01-22 18:24:00,
2013-01-22 13:34:00,32.0,6.0,30.23,South,182,2.0,6.0,32,0.00,,,0.00,,2013-01-22 18:34:00,
2013-01-22 13:43:00,32.0,6.0,30.23,South,182,2.0,6.0,32,0.00,,,0.00,,2013-01-22 18:43:00,
2013-01-22 13:53:00,33.0,3.0,30.22,SW,217,0.0,4.0,28,0.00,,,0.00,,2013-01-22 18:53:00,
2013-01-22 14:04:00,33.0,3.0,30.23,SSE,167,0.0,5.0,27,0.00,,,0.00,,2013-01-22 19:04:00,
2013-01-22 14:13:00,33.0,3.0,30.23,SSE,167,0.0,5.0,27,0.00,,,0.00,,2013-01-22 19:13:00,
2013-01-22 14:24:00,34.0,3.0,30.23,WSW,250,3.0,9.0,26,0.00,,,0.00,,2013-01-22 19:24:00,
2013-01-22 14:34:00,34.0,7.0,30.23,East,90,6.0,6.0,31,0.00,,,0.00,,2013-01-22 19:34:00,
2013-01-22 14:43:00,34.0,7.0,30.23,East,90,6.0,6.0,31,0.00,,,0.00,,2013-01-22 19:43:00,
2013-01-22 14:53:00,34.0,6.0,30.22,West,276,0.0,6.0,30,0.00,,,0.00,,2013-01-22 19:53:00,
2013-01-22 15:03:00,35.0,8.0,30.21,East,87,0.0,6.0,32,0.00,,,0.00,,2013-01-22 20:03:00,
2013-01-22 15:13:00,35.0,8.0,30.21,East,87,0.0,6.0,32,0.00,,,0.00,,2013-01-22 20:13:00,
2013-01-22 15:23:00,36.0,8.0,30.21,South,180,0.0,6.0,30,0.00,,,0.00,,2013-01-22 20:23:00,
2013-01-22 15:33:00,34.0,6.0,30.22,ESE,121,2.0,5.0,30,0.00,,,0.00,,2013-01-22 20:33:00,
2013-01-22 15:43:00,34.0,6.0,30.22,ESE,121,2.0,5.0,30,0.00,,,0.00,,2013-01-22 20:43:00,
2013-01-22 15:53:00,36.0,8.0,30.22,South,189,2.0,4.0,31,0.00,,,0.00,,2013-01-22 20:53:00,
2013-01-22 16:04:00,36.0,10.0,30.22,ESE,115,3.0,6.0,33,0.00,,,0.00,,2013-01-22 21:04:00,
2013-01-22 16:13:00,36.0,10.0,30.22,ESE,115,3.0,6.0,33,0.00,,,0.00,,2013-01-22 21:13:00,
2013-01-22 16:23:00,37.0,11.0,30.22,East,89,3.0,5.0,33,0.00,,,0.00,,2013-01-22 21:23:00,
2013-01-22 16:34:00,35.0,7.0,30.23,South,186,0.0,6.0,31,0.00,,,0.00,,2013-01-22 21:34:00,
2013-01-22 16:43:00,35.0,7.0,30.23,South,186,0.0,6.0,31,0.00,,,0.00,,2013-01-22 21:43:00,
2013-01-22 16:53:00,34.0,7.0,30.24,SE,146,0.0,0.0,32,0.00,,,0.00,,2013-01-22 21:53:00,
2013-01-22 17:03:00,32.0,6.0,30.25,SE,144,0.0,1.0,33,0.00,,,0.00,,2013-01-22 22:03:00,
2013-01-22 17:13:00,32.0,6.0,30.25,SE,144,0.0,1.0,33,0.00,,,0.00,,2013-01-22 22:13:00,
2013-01-22 17:23:00,32.0,7.0,30.25,NE,48,0.0,3.0,34,0.00,,,0.00,,2013-01-22 22:23:00,
2013-01-22 17:33:00,32.0,7.0,30.25,NE,48,0.0,3.0,34,0.00,,,0.00,,2013-01-22 22:33:00,
2013-01-22 17:43:00,30.0,6.0,30.25,ESE,115,0.0,2.0,36,0.00,,,0.00,,2013-01-22 22:43:00,
2013-01-22 17:53:00,30.0,5.0,30.26,SE,132,0.0,0.0,34,0.00,,,0.00,,2013-01-22 22:53:00,
2013-01-22 18:03:00,29.0,4.0,30.25,SE,132,0.0,0.0,34,0.00,,,0.00,,2013-01-22 23:03:00,
2013-01-22 18:12:00,29.0,4.0,30.25,SE,132,0.0,0.0,34,0.00,,,0.00,,2013-01-22 23:12:00,
2013-01-22 18:24:00,29.0,4.0,30.25,SE,132,0.0,0.0,34,0.00,,,0.00,,2013-01-22 23:24:00,
2013-01-22 18:33:00,28.0,5.0,30.26,SE,132,0.0,0.0,36,0.00,,,0.00,,2013-01-22 23:33:00,
2013-01-22 18:43:00,28.0,5.0,30.26,SE,132,0.0,0.0,36,0.00,,,0.00,,2013-01-22 23:43:00,
2013-01-22 18:53:00,28.0,6.0,30.26,SE,132,0.0,0.0,38,0.00,,,0.00,,2013-01-22 23:53:00,
2013-01-22 19:03:00,27.0,5.0,30.27,SE,132,0.0,0.0,39,0.00,,,0.00,,2013-01-23 00:03:00,
2013-01-22 19:12:00,27.0,5.0,30.27,SE,132,0.0,0.0,39,0.00,,,0.00,,2013-01-23 00:12:00,
2013-01-22 19:23:00,27.0,7.0,30.26,SE,132,0.0,0.0,42,0.00,,,0.00,,2013-01-23 00:23:00,
2013-01-22 19:33:00,26.0,7.0,30.27,SE,132,0.0,0.0,44,0.00,,,0.00,,2013-01-23 00:33:00,
2013-01-22 19:43:00,26.0,7.0,30.27,SE,132,0.0,0.0,44,0.00,,,0.00,,2013-01-23 00:43:00,
2013-01-22 19:52:00,26.0,5.0,30.28,SE,132,0.0,0.0,40,0.00,,,0.00,,2013-01-23 00:52:00,
2013-01-22 20:03:00,25.0,5.0,30.29,SE,132,0.0,0.0,41,0.00,,,0.00,,2013-01-23 01:03:00,
2013-01-22 20:13:00,25.0,5.0,30.29,SE,132,0.0,0.0,41,0.00,,,0.00,,2013-01-23 01:13:00,
2013-01-22 20:23:00,25.0,4.0,30.30,SE,132,0.0,0.0,39,0.00,,,0.00,,2013-01-23 01:23:00,
2013-01-22 20:33:00,25.0,5.0,30.31,SE,132,0.0,0.0,41,0.00,,,0.00,,2013-01-23 01:33:00,
2013-01-22 20:43:00,25.0,5.0,30.31,SE,132,0.0,0.0,41,0.00,,,0.00,,2013-01-23 01:43:00,
2013-01-22 20:52:00,25.0,5.0,30.30,SE,132,0.0,0.0,41,0.00,,,0.00,,2013-01-23 01:52:00,
2013-01-22 21:03:00,25.0,6.0,30.30,SE,132,0.0,0.0,43,0.00,,,0.00,,2013-01-23 02:03:00,
2013-01-22 21:13:00,25.0,6.0,30.30,SE,132,0.0,0.0,43,0.00,,,0.00,,2013-01-23 02:13:00,
2013-01-22 21:23:00,26.0,8.0,30.29,SE,132,0.0,0.0,45,0.00,,,0.00,,2013-01-23 02:23:00,
2013-01-22 21:33:00,25.0,6.0,30.29,SE,132,0.0,0.0,43,0.00,,,0.00,,2013-01-23 02:33:00,
2013-01-22 21:43:00,25.0,6.0,30.29,SE,132,0.0,0.0,43,0.00,,,0.00,,2013-01-23 02:43:00,
2013-01-22 21:53:00,26.0,7.0,30.30,SE,132,0.0,0.0,43,0.00,,,0.00,,2013-01-23 02:53:00,
2013-01-22 22:03:00,25.0,5.0,30.29,SE,132,0.0,0.0,42,0.00,,,0.00,,2013-01-23 03:03:00,
2013-01-22 22:13:00,25.0,5.0,30.29,SE,132,0.0,0.0,42,0.00,,,0.00,,2013-01-23 03:13:00,
2013-01-22 22:23:00,25.0,6.0,30.30,SE,132,0.0,0.0,43,0.00,,,0.00,,2013-01-23 03:23:00,
2013-01-22 22:33:00,25.0,6.0,30.29,SE,132,0.0,0.0,44,0.00,,,0.00,,2013-01-23 03:33:00,
2013-01-22 22:43:00,25.0,6.0,30.29,SE,132,0.0,0.0,44,0.00,,,0.00,,2013-01-23 03:43:00,
2013-01-22 22:53:00,26.0,8.0,30.29,SE,132,0.0,0.0,45,0.00,,,0.00,,2013-01-23 03:53:00,
2013-01-22 23:03:00,25.0,7.0,30.29,SE,132,0.0,0.0,45,0.00,,,0.00,,2013-01-23 04:03:00,
2013-01-22 23:13:00,25.0,7.0,30.29,SE,132,0.0,0.0,45,0.00,,,0.00,,2013-01-23 04:13:00,
2013-01-22 23:23:00,26.0,7.0,30.29,SE,132,0.0,0.0,44,0.00,,,0.00,,2013-01-23 04:23:00,
2013-01-22 23:33:00,25.0,8.0,30.29,SE,132,0.0,0.0,47,0.00,,,0.00,,2013-01-23 04:33:00,
2013-01-22 23:43:00,25.0,8.0,30.29,SE,132,0.0,0.0,47,0.00,,,0.00,,2013-01-23 04:43:00,
2013-01-22 23:52:00,25.0,7.0,30.29,SE,132,0.0,0.0,46,0.00,,,0.00,,2013-01-23 04:52:00,